TimePST,TemperatureF,Dew PointF,Humidity,Sea Level PressureIn,VisibilityMPH,Wind Direction,Wind SpeedMPH,Gust SpeedMPH,PrecipitationIn,Events,Conditions,WindDirDegrees,DateUTC
12:55 AM,39.9,30.0,68,29.98,10.0,Calm,Calm,-,N/A,,Clear,0,2013-03-05 08:55:00
1:55 AM,37.0,28.9,73,29.96,10.0,Calm,Calm,-,N/A,,Clear,0,2013-03-05 09:55:00
2:55 AM,35.1,28.9,78,29.95,10.0,Calm,Calm,-,N/A,,Clear,0,2013-03-05 10:55:00
3:55 AM,35.1,28.9,78,29.93,10.0,Calm,Calm,-,N/A,,Clear,0,2013-03-05 11:55:00
4:55 AM,32.0,28.0,85,29.94,10.0,SSE,3.5,-,N/A,,Clear,160,2013-03-05 12:55:00
5:55 AM,32.0,27.0,82,29.95,10.0,Calm,Calm,-,N/A,,Scattered Clouds,0,2013-03-05 13:55:00
6:55 AM,34.0,28.9,82,29.95,10.0,Calm,Calm,-,N/A,,Scattered Clouds,0,2013-03-05 14:55:00
7:55 AM,37.0,30.0,76,29.94,10.0,Calm,Calm,-,N/A,,Scattered Clouds,0,2013-03-05 15:55:00
8:55 AM,44.1,30.9,60,29.92,10.0,Calm,Calm,-,N/A,,Scattered Clouds,0,2013-03-05 16:55:00
9:55 AM,52.0,28.9,41,29.89,10.0,NNE,3.5,-,N/A,,Mostly Cloudy,30,2013-03-05 17:55:00
10:46 AM,59.0,26.6,29,29.90,10.0,SSW,21.9,29.9,N/A,,Clear,210,2013-03-05 18:46:00
10:55 AM,59.0,25.0,27,29.83,10.0,SSW,25.3,32.2,N/A,,Mostly Cloudy,200,2013-03-05 18:55:00
11:55 AM,61.0,24.1,24,29.81,10.0,SSW,26.5,36.8,N/A,,Mostly Cloudy,200,2013-03-05 19:55:00
12:55 PM,61.0,21.9,22,29.77,10.0,SSW,26.5,34.5,N/A,,Mostly Cloudy,210,2013-03-05 20:55:00
1:55 PM,61.0,24.1,24,29.75,10.0,SSW,25.3,32.2,N/A,,Mostly Cloudy,210,2013-03-05 21:55:00
2:55 PM,59.0,24.1,26,29.76,10.0,SSW,21.9,-,N/A,,Mostly Cloudy,200,2013-03-05 22:55:00
3:55 PM,57.0,26.1,30,29.73,10.0,SW,21.9,31.1,N/A,,Mostly Cloudy,220,2013-03-05 23:55:00
4:55 PM,53.1,25.0,34,29.75,10.0,SSW,19.6,-,N/A,,Scattered Clouds,210,2013-03-06 00:55:00
5:55 PM,51.1,26.1,38,29.78,10.0,South,10.4,-,N/A,,Scattered Clouds,180,2013-03-06 01:55:00
6:55 PM,48.9,25.0,39,29.78,10.0,South,11.5,-,N/A,,Scattered Clouds,180,2013-03-06 02:55:00
7:55 PM,48.0,25.0,41,29.73,10.0,SE,5.8,23.0,N/A,,Scattered Clouds,130,2013-03-06 03:55:00
8:55 PM,46.9,24.1,41,29.71,10.0,SE,6.9,-,N/A,,Scattered Clouds,140,2013-03-06 04:55:00
9:55 PM,46.9,21.9,37,29.68,10.0,South,16.1,-,N/A,,Scattered Clouds,170,2013-03-06 05:55:00
10:55 PM,46.0,23.0,40,29.64,10.0,South,16.1,23.0,N/A,,Scattered Clouds,180,2013-03-06 06:55:00
11:55 PM,48.9,26.1,41,29.61,10.0,SSW,34.5,47.2,N/A,,Mostly Cloudy,210,2013-03-06 07:55:00